[[{"header":{"parameterUnit":"m.s-1","parameterCategory":1,"la1":30.2991,"la2":30.254,"lo1":-89.0895,"lo2":-89.0444,"dy":0.0017,"dx":0.0017,"nx":28,"ny":28,"refTime":"2024-03-31T21:00:00:Z","depth":0,"parameterNumber":2,"parameterNumberName":"U-component_of_WINDS"},"data":[0,0,0,0,0,0,0,0,0,0,0,0,0,0,0,0,0,0,0,0,0,0,0,0,0,0,0,0,0,0,0,0,0,0,0,0,0,0,0,0,0,0,0,0,0,0,0,0,0,0,0,0,0,0,0,0,0,0,-1.1698,-1.1698,0,-1.1669,-1.1669,-1.1668,-1.1647,-1.1647,-1.1647,-1.1647,-1.1617,-1.1616,-1.1616,0,0,0,0,0,0,0,0,0,0,0,0,0,-1.1734,-1.1733,-1.1698,-1.1698,-1.1697,-1.1669,-1.1669,-1.1668,-1.1647,-1.1647,-1.1647,-1.1647,-1.1617,-1.1616,-1.1616,0,0,0,0,0,0,0,0,0,0,0,0,0,-1.1713,-1.1733,-1.1698,-1.1684,-1.1682,-1.1669,-1.1669,-1.1668,-1.1647,-1.1647,-1.1647,-1.1647,-1.1617,-1.1616,-1.1616,-1.1615,0,0,-1.1613,-1.1612,0,0,0,0,0,0,0,0,-1.1714,-1.1712,-1.1686,-1.1684,-1.1683,-1.1662,-1.167,-1.165,-1.1647,-1.1661,-1.1647,-1.1646,-1.1632,-1.163,-1.1625,-1.1614,-1.1612,-1.1613,-1.1612,-1.1612,-1.1611,0,0,0,0,0,0,0,-1.1716,-1.1713,-1.1687,-1.1686,-1.1684,-1.1678,-1.1675,-1.1666,-1.1648,-1.1659,-1.1658,-1.1655,-1.1631,-1.1626,-1.1624,-1.1612,-1.1613,-1.1612,-1.1611,-1.1611,-1.1596,-1.1597,0,0,0,0,0,0,-1.1719,-1.1714,-1.1688,-1.1686,-1.1698,-1.1677,-1.1674,-1.1669,-1.1648,-1.1645,-1.1655,-1.1654,-1.1628,-1.1625,-1.1623,-1.162,-1.1612,-1.1611,-1.161,-1.1596,-1.1597,-1.1597,0,0,0,0,0,0,-1.172,-1.1717,-1.1689,-1.1699,-1.1695,-1.1677,-1.1671,-1.1668,-1.1663,-1.1645,-1.1641,-1.1653,-1.1627,-1.1624,-1.1617,-1.1618,-1.161,-1.1609,-1.1596,-1.1596,-1.1597,-1.1614,0,0,0,0,0,0,-1.1721,-1.1718,-1.1718,-1.17,-1.1695,-1.1683,-1.1672,-1.1668,-1.1662,-1.166,-1.1642,-1.1639,-1.1627,-1.1618,-1.1616,-1.1617,-1.1609,-1.1596,-1.1596,-1.1597,-1.1613,-1.1615,-1.1616,0,0,0,0,0,-1.1723,-1.1724,-1.1718,-1.1715,-1.1695,-1.1684,-1.1681,-1.1667,-1.1662,-1.1661,-1.1649,-1.164,-1.1619,-1.1618,-1.1615,-1.1616,-1.1596,-1.1596,-1.1596,-1.1612,-1.1614,-1.1616,0,0,0,0,0,0,-1.1743,-1.1722,-1.1714,-1.171,-1.1699,-1.168,-1.1679,-1.167,-1.166,-1.1659,-1.1642,-1.1638,-1.1632,-1.1623,-1.1622,-1.1613,-1.1606,-1.1606,-1.1619,-1.1621,-1.1622,-1.1624,-1.1608,0,0,0,0,0,-1.1748,-1.1741,-1.1722,-1.172,-1.1715,-1.1698,-1.1693,-1.1683,-1.167,-1.1665,-1.1653,-1.1641,-1.1631,-1.1626,-1.1616,-1.1612,-1.1607,-1.1611,-1.1612,-1.1613,-1.1613,-1.1609,-1.161,-1.1598,-1.1598,-1.1598,0,0,-1.1756,-1.1743,-1.174,-1.1724,-1.1714,-1.1706,-1.1694,-1.1687,-1.1681,-1.1664,-1.1656,-1.1646,-1.1632,-1.1625,-1.1622,-1.1618,-1.1615,-1.1614,-1.1615,-1.1614,-1.1609,-1.161,-1.1611,-1.1598,-1.1598,-1.1598,0,0,-1.1767,-1.1757,-1.1754,-1.1744,-1.1729,-1.1717,-1.1716,-1.1699,-1.1691,-1.1683,-1.1669,-1.1662,-1.1646,-1.1636,-1.1629,-1.1634,-1.1624,-1.1631,-1.1639,-1.1635,-1.1636,-1.1636,-1.1637,-1.1638,-1.1631,-1.1631,-1.1631,0,-1.1779,-1.1768,-1.1753,-1.1746,-1.1739,-1.1723,-1.1719,-1.171,-1.1692,-1.1687,-1.1683,-1.1662,-1.1651,-1.1641,-1.1642,-1.1637,-1.1635,-1.1633,-1.1637,-1.1637,-1.1638,-1.1638,-1.1639,-1.1632,-1.1632,-1.1632,-1.1632,0,-1.1783,-1.1775,-1.1774,-1.1757,-1.175,-1.1744,-1.1728,-1.1722,-1.1712,-1.1701,-1.1691,-1.1678,-1.1664,-1.1661,-1.1652,-1.1649,-1.1647,-1.164,-1.1633,-1.164,-1.164,-1.164,-1.1634,-1.1633,-1.1633,-1.1633,0,0,-1.1807,-1.1781,-1.1781,-1.1772,-1.1754,-1.1747,-1.174,-1.1727,-1.1721,-1.171,-1.1703,-1.1689,-1.1682,-1.1673,-1.1663,-1.1659,-1.1662,-1.1652,-1.1652,-1.1654,-1.1657,-1.1662,-1.1663,-1.1656,-1.1656,-1.1656,-1.1658,0,-1.1815,-1.1802,-1.1788,-1.178,-1.1771,-1.1755,-1.1749,-1.1736,-1.1725,-1.1716,-1.1704,-1.1694,-1.1686,-1.1681,-1.1676,-1.1663,-1.1663,-1.1663,-1.1649,-1.1648,-1.1652,-1.1663,-1.1668,-1.1671,-1.1658,-1.1658,-1.1658,0,-1.1822,-1.181,-1.1801,-1.1782,-1.1778,-1.1773,-1.1758,-1.175,-1.1735,-1.1727,-1.1717,-1.1706,-1.1697,-1.169,-1.1677,-1.1677,-1.167,-1.1663,-1.1662,-1.166,-1.1653,-1.166,-1.1672,-1.1672,-1.1658,-1.1658,-1.1658,0,-1.1839,-1.1821,-1.1813,-1.1806,-1.1784,-1.178,-1.1771,-1.1755,-1.1748,-1.1735,-1.173,-1.1716,-1.1709,-1.1698,-1.1683,-1.168,-1.167,-1.1663,-1.1663,-1.1663,-1.1662,-1.1662,-1.1672,-1.1658,-1.1658,-1.1658,-1.1658,0,-1.1849,-1.1843,-1.182,-1.1815,-1.1808,-1.1791,-1.1785,-1.1774,-1.176,-1.1752,-1.1737,-1.173,-1.171,-1.17,-1.1688,-1.1678,-1.1675,-1.1668,-1.1664,-1.1669,-1.1669,-1.1664,-1.1663,-1.1658,-1.1658,-1.1658,-1.1658,0,-1.1866,-1.1851,-1.184,-1.182,-1.1814,-1.181,-1.1792,-1.1786,-1.1774,-1.1764,-1.176,-1.1741,-1.1728,-1.1711,-1.1694,-1.1685,-1.1676,-1.1672,-1.1682,-1.1679,-1.168,-1.168,-1.1686,-1.1685,-1.1673,-1.1673,-1.1674,0,-1.1873,-1.1869,-1.1847,-1.184,-1.1831,-1.1821,-1.1813,-1.1796,-1.1788,-1.1769,-1.1765,-1.1751,-1.1739,-1.1719,-1.1703,-1.1689,-1.1683,-1.1686,-1.1681,-1.1685,-1.1682,-1.1683,-1.1681,-1.1688,-1.1688,-1.1688,-1.1688,0,-1.1886,-1.1878,-1.1867,-1.1853,-1.1844,-1.1832,-1.1819,-1.1814,-1.1794,-1.1786,-1.1772,-1.1763,-1.1744,-1.173,-1.1714,-1.1703,-1.1692,-1.169,-1.1689,-1.1693,-1.1699,-1.1695,-1.1684,-1.169,-1.169,-1.169,-1.169,-1.169,-1.1898,-1.1893,-1.1876,-1.1864,-1.1852,-1.1841,-1.1834,-1.182,-1.1809,-1.1792,-1.1782,-1.1769,-1.1753,-1.1729,-1.1719,-1.1708,-1.1704,-1.1703,-1.1702,-1.1702,-1.1703,-1.1701,-1.1705,-1.1705,-1.1705,-1.1705,-1.1704,0,-1.1909,-1.1898,-1.1887,-1.1869,-1.1859,-1.185,-1.1835,-1.1827,-1.1815,-1.1801,-1.1789,-1.1773,-1.1759,-1.1741,-1.1726,-1.172,-1.1715,-1.1717,-1.1717,-1.1714,-1.1708,-1.171,-1.1721,-1.1721,-1.1721,-1.1721,-1.1721,-1.1721,-1.1914,-1.1904,-1.1894,-1.1878,-1.1866,-1.1853,-1.1845,-1.1834,-1.1822,-1.1805,-1.1793,-1.1782,-1.1766,-1.1749,-1.1735,-1.173,-1.1725,-1.1728,-1.1722,-1.1716,-1.1715,-1.1713,-1.1715,-1.1727,-1.1727,-1.1729,-1.1729,-1.1729]},{"header":{"parameterUnit":"m.s-1","parameterCategory":1,"la1":30.2991,"la2":30.254,"lo1":-89.0895,"lo2":-89.0444,"dy":0.0017,"dx":0.0017,"nx":28,"ny":28,"refTime":"2024-03-31T21:00:00:Z","depth":0,"parameterNumber":3,"parameterNumberName":"V-component_of_WINDS"},"data":[0,0,0,0,0,0,0,0,0,0,0,0,0,0,0,0,0,0,0,0,0,0,0,0,0,0,0,0,0,0,0,0,0,0,0,0,0,0,0,0,0,0,0,0,0,0,0,0,0,0,0,0,0,0,0,0,0,0,2.7441,2.7443,0,2.7621,2.7623,2.7625,2.7698,2.7698,2.7698,2.7697,2.7882,2.7887,2.7892,0,0,0,0,0,0,0,0,0,0,0,0,0,2.7166,2.717,2.7441,2.7443,2.7445,2.762,2.7623,2.7625,2.7698,2.7698,2.7698,2.7697,2.788,2.7886,2.7893,0,0,0,0,0,0,0,0,0,0,0,0,0,2.7309,2.7172,2.7441,2.7503,2.7511,2.762,2.7623,2.7626,2.7699,2.7698,2.7697,2.7697,2.7878,2.7886,2.7893,2.7954,0,0,2.7918,2.7921,0,0,0,0,0,0,0,0,2.7301,2.7319,2.7492,2.7499,2.7507,2.7636,2.7593,2.7736,2.7699,2.7627,2.7697,2.7697,2.7801,2.7815,2.785,2.7963,2.7971,2.7918,2.7923,2.7927,2.7929,0,0,0,0,0,0,0,2.7291,2.7312,2.7512,2.7494,2.7504,2.7524,2.7543,2.7621,2.7715,2.7633,2.7639,2.7659,2.7805,2.7842,2.7855,2.7973,2.7918,2.7925,2.793,2.7933,2.8149,2.815,0,0,0,0,0,0,2.727,2.7303,2.7506,2.7517,2.7401,2.7529,2.7551,2.7596,2.7714,2.7732,2.766,2.7662,2.7829,2.7845,2.7862,2.7943,2.7926,2.7934,2.7938,2.8148,2.8149,2.815,0,0,0,0,0,0,2.7264,2.7288,2.7499,2.7412,2.744,2.7534,2.7584,2.76,2.7637,2.7734,2.7752,2.768,2.7829,2.785,2.7931,2.795,2.7937,2.7945,2.8147,2.8148,2.815,2.8105,0,0,0,0,0,0,2.7256,2.7285,2.7308,2.7412,2.7445,2.7565,2.7585,2.7603,2.765,2.7655,2.7758,2.7775,2.783,2.7919,2.7939,2.7961,2.7951,2.8146,2.8148,2.8149,2.8105,2.8104,2.8104,0,0,0,0,0,2.7246,2.7287,2.7309,2.7333,2.7475,2.7566,2.7585,2.7647,2.7651,2.7676,2.7739,2.7771,2.7945,2.7927,2.795,2.7974,2.8145,2.8147,2.8149,2.8105,2.8104,2.8104,0,0,0,0,0,0,2.7183,2.7302,2.7327,2.7403,2.7474,2.7578,2.7611,2.7644,2.7715,2.7717,2.7793,2.7815,2.7891,2.7941,2.7918,2.8041,2.8048,2.8054,2.8006,2.8006,2.8006,2.7993,2.7957,0,0,0,0,0,2.7178,2.724,2.7341,2.7399,2.7433,2.7516,2.7557,2.76,2.7676,2.7707,2.7776,2.7849,2.7921,2.7966,2.8037,2.8112,2.8137,2.8141,2.814,2.8139,2.8145,2.8192,2.8196,2.8158,2.8158,2.8158,0,0,2.7168,2.7241,2.7275,2.7388,2.7448,2.7513,2.754,2.7607,2.7656,2.7717,2.7798,2.7852,2.7939,2.8018,2.8056,2.8062,2.8161,2.8142,2.8141,2.8147,2.8195,2.8198,2.8201,2.8159,2.8159,2.8159,0,0,2.7183,2.7244,2.73,2.736,2.745,2.7506,2.7519,2.7619,2.7657,2.774,2.7788,2.7848,2.7969,2.803,2.8077,2.8119,2.8152,2.814,2.8138,2.8183,2.8186,2.8189,2.8207,2.8212,2.8145,2.8145,2.8145,0,2.716,2.7258,2.7325,2.739,2.7439,2.7498,2.7557,2.7612,2.7721,2.7754,2.7759,2.7914,2.7977,2.8073,2.8083,2.8118,2.8138,2.8129,2.818,2.8184,2.8188,2.8205,2.8212,2.8143,2.8143,2.8143,2.8143,0,2.7226,2.7294,2.7329,2.7434,2.7487,2.7549,2.7626,2.7672,2.7711,2.7766,2.7852,2.7929,2.8018,2.8044,2.8082,2.8147,2.8148,2.8165,2.8173,2.8188,2.8206,2.8213,2.814,2.8141,2.8141,2.8142,0,0,2.7205,2.7348,2.736,2.741,2.7516,2.757,2.7636,2.7723,2.7763,2.7837,2.7895,2.7997,2.8015,2.8068,2.8114,2.8153,2.8186,2.8167,2.817,2.8169,2.8265,2.8253,2.8259,2.8208,2.8209,2.8211,2.8259,0,2.7237,2.7356,2.7419,2.7512,2.7578,2.7636,2.7694,2.7766,2.782,2.7884,2.7944,2.8016,2.8033,2.8066,2.8107,2.8172,2.8206,2.817,2.8265,2.8267,2.8243,2.8268,2.8255,2.8296,2.8266,2.8267,2.8268,0,2.7289,2.7363,2.7463,2.7564,2.7594,2.7644,2.7732,2.7792,2.7876,2.7913,2.7974,2.802,2.8093,2.8095,2.8198,2.8172,2.8215,2.8253,2.8257,2.8269,2.8269,2.8283,2.8311,2.8317,2.8279,2.8278,2.8278,0,2.7266,2.7391,2.7468,2.7509,2.7628,2.7663,2.7715,2.7798,2.7848,2.7925,2.7958,2.8042,2.8088,2.8153,2.8221,2.8215,2.8319,2.8325,2.8353,2.8351,2.8373,2.8371,2.8409,2.8397,2.8397,2.8397,2.8397,0,2.7295,2.7355,2.746,2.7508,2.7577,2.765,2.7717,2.7773,2.7848,2.7909,2.7964,2.802,2.8105,2.8173,2.8226,2.8305,2.8325,2.8358,2.8372,2.8355,2.8351,2.8385,2.8384,2.8399,2.8398,2.8398,2.8397,0,2.7282,2.7355,2.7443,2.755,2.7578,2.7625,2.7717,2.7767,2.7824,2.7901,2.7923,2.8014,2.8097,2.8171,2.8279,2.8316,2.8397,2.8413,2.8369,2.8377,2.8401,2.8399,2.8464,2.8478,2.8454,2.8454,2.8454,0,2.7296,2.7343,2.7456,2.7501,2.7552,2.7623,2.7675,2.775,2.7802,2.7903,2.7941,2.8028,2.8101,2.823,2.8307,2.8391,2.8411,2.8429,2.8424,2.8406,2.8415,2.8412,2.8418,2.8428,2.8428,2.8428,2.8428,0,2.7314,2.7349,2.7421,2.7508,2.7568,2.764,2.7713,2.7747,2.7836,2.7892,2.7977,2.8034,2.8147,2.8233,2.8327,2.8382,2.8421,2.8429,2.844,2.8423,2.8396,2.8414,2.837,2.8427,2.8427,2.8427,2.8427,2.8427,2.7317,2.7363,2.7451,2.7531,2.7594,2.7662,2.7715,2.778,2.7853,2.7951,2.7991,2.8078,2.8165,2.8295,2.835,2.8421,2.8428,2.8443,2.8448,2.8451,2.8449,2.8384,2.8437,2.8438,2.8438,2.8438,2.8438,0,2.734,2.74,2.7473,2.7575,2.7638,2.767,2.7753,2.7805,2.7882,2.7959,2.8031,2.8131,2.8216,2.83,2.839,2.8431,2.8451,2.8452,2.845,2.8463,2.8436,2.8418,2.8434,2.8434,2.8434,2.8434,2.8434,2.8434,2.7359,2.744,2.7486,2.76,2.7661,2.7747,2.7793,2.7857,2.792,2.8029,2.81,2.8155,2.8236,2.8333,2.8413,2.8436,2.8467,2.8464,2.8491,2.8465,2.8464,2.8464,2.8448,2.8469,2.8469,2.8513,2.8513,2.8514]}]]